STARLINK-4479 (53415 NORAD) Tracking and Keplerian Element Data

This shows tracking and keplerian element data for the satellite.

Feedback or suggestion? Click here.




ElementValue
Catalog53415
NameSTARLINK-4479
Epoch Orbit797
Epoch Day270.25001157
Epoch Year2022
RAAN11.4727
Inclination53.2175
Eccentricity0.0002192
Argument of Perigee37.7402
Mean Anonmoly231.8455
Mean Motion15.49845018
Decay Rate0.00043561
L11 53415U 22097AD 22270.25001157 .00043561 00000+0 77224-3 0 9995
L22 53415 53.2175 11.4727 0002192 37.7402 231.8455 15.49845018 7978

Live tracking and technical data element details for STARLINK-4479 (NORAD 53415). STARLINK-4479 can be tracked NOW for your location showing map with azimuth and elevation plus other details from your city location.

Track the satellite on the map from your city or location and see movement details for azimuth, elevation, latitude, longitude, range, height, and movement on the map or in text.







IsCatalogInMostPopularTable: catalog: 53415, numindb: 4
Update: records affected: 1



GetName: 53415 STARLINK-4479

Hit Count: updated at: Thu, 29 Sep 2022 11:15:47 GMT